Terminal Aerodrome Forecast
Issued by NWS

Home | Current Version | Previous Version | Text Only | Print | Product List | Glossary On
Versions: 1 2 3 4 5 6 7 8 9 10 11 12 13 14 15 16 17 18 19 20 21 22 23 24
000
FTUS42 KMHX 310725 AAA
TAFOAJ
TAF AMD
KOAJ 310725Z 3107/0106 VRB03KT 1SM BR OVC002
     FM311200 05005KT 5SM -SHRA SCT008 OVC025
     FM311900 06008KT P6SM VCSH SCT025 OVC050
      AMD LTD TO CLD VIS AND WIND=

USA.gov is the U.S. government's official web portal to all federal, state and local government web resources and services.